Regional Weather Roundup
Issued by NWS Burlington, VT

Home | Current Version | Previous Version | Text Only | Print | Product List | Glossary On
Versions: 1 2 3 4 5 6 7 8 9 10 11 12 13 14 15 16 17 18 19 20 21 22 23 24 25 26 27 28 29 30 31 32 33 34 35 36 37 38 39 40 41 42 43 44 45 46 47 48 49 50
000
ASUS41 KBTV 180230
RWRBTV
VERMONT REGIONAL WEATHER ROUNDUP
NATIONAL WEATHER SERVICE BURLINGTON VT
1000 PM EDT TUE OCT 17 2017

NOTE: "FAIR" INDICATES FEW OR NO CLOUDS BELOW 12,000 FEET WITH NO
SIGNIFICANT WEATHER AND/OR OBSTRUCTIONS TO VISIBILITY.

* THESE REPORTS ARE NOT UNDER NWS QUALITY CONTROL AND/OR DO NOT
  REPORT WEATHER SUCH AS PRECIPITATION AND FOG.

VTZ001>019-180300-
_____VERMONT_____


CITY           SKY/WX    TMP DP  RH WIND       PRES   REMARKS
BURLINGTON     PTCLDY    51  32  48 S14G22    30.11R
MONTPELIER     CLEAR     43  32  65 SE7       30.17R
MORRISVILLE    PTCLDY    42  33  70 CALM      30.12R
ST. JOHNSBURY*   N/A     48  30  49 MISG      30.11R
LYNDONVILLE*   FAIR      44  28  54 SE8       30.13S
MIDDLEBURY*    FAIR      50  31  48 SE6       30.16S
RUTLAND*       CLEAR     43  30  60 E7        30.19R
SPRINGFIELD    CLEAR     39  30  70 CALM      30.20R
HIGHGATE*      FAIR      51  34  52 S8        30.07S
NEWPORT*       CLOUDY    46  31  54 S7        30.10F
BENNINGTON     CLEAR     39  33  79 N3        30.20R
SUTTON*          N/A     37 N/A N/A MISG        N/A
ISLAND POND*     N/A     46 N/A N/A W3          N/A
GALLUP MILLS*    N/A     34 N/A N/A MISG        N/A
UNION VILLAGE*   N/A     37 N/A N/A MISG        N/A
MT. MANSFIELD*   N/A     37 N/A N/A SW47        N/A  WCI  22

_____LAKE CHAMPLAIN_____


CITY           SKY/WX    TMP DP  RH WIND       PRES   REMARKS
BURTON ISLAND*   N/A     55  41  58 S22G29      N/A
COLCHESTER RF*   N/A     55  39  54 S31         N/A
DIAMOND ISL*     N/A     52  34  50 S22         N/A

$$

NYZ007-026>031-035-052-083-087-180300-
_____NORTHERN NEW YORK_____


CITY           SKY/WX    TMP DP  RH WIND       PRES   REMARKS
PLATTSBURGH    CLEAR     48  35  60 S7        30.09R
SARANAC LAKE   CLEAR     46  37  71 SW9       30.09R
MASSENA        CLOUDY    56  42  59 SW17G24   30.04F
OGDENSBURG*    FAIR      55  43  66 S10G16    30.06S
POTSDAM*       CLEAR     55  41  58 SW15G23   30.06F
STARK FALLS*     N/A     52 N/A N/A S12         N/A
WATERTOWN      PTCLDY    57  41  55 S12G20    30.10S
FT DRUM        CLEAR     56  38  50 SW14      30.09S
ALBANY         CLEAR     48  34  58 S9        30.21R
GLENS FALLS    CLEAR     39  33  79 CALM      30.19R

$$
NHZ002-005-011-180300-
_____NEW HAMPSHIRE_____


CITY           SKY/WX    TMP DP  RH WIND       PRES   REMARKS
LEBANON        CLEAR     45  30  55 S9        30.16R
KEENE          CLEAR     36  33  89 S10G16    30.22S WCI  28
MT WASHINGTON  MOCLDY    27  21  80 W48         N/A  WCI   7
PLYMOUTH       FAIR      33  33  96 CALM      30.19R
WHITEFIELD     CLEAR     33  30  88 CALM      30.13R

$$

_____REGIONAL QUEBEC LOCATIONS_____


CITY           SKY/WX    TMP DP  RH WIND       PRES   REMARKS
MONTREAL       MOCLDY    55  43  62 SW13G23   30.01S
QUEBEC CITY    CLOUDY    46  37  71 SW3       29.97F
SHERBROOKE     MOCLDY    48  30  49 SW8       30.06R

_____REGIONAL ONTARIO LOCATIONS_____


CITY           SKY/WX    TMP DP  RH WIND       PRES   REMARKS
OTTAWA         MOCLDY    57  46  67 SW14G23   30.02R

______KEY______
VSB  - VISIBILITY IN MILES
WCI  - WIND CHILL INDEX
HX   - HEAT INDEX
$$
NNNN



USA.gov is the U.S. government's official web portal to all federal, state and local government web resources and services.